| time (UTC) | temp F | wind direction | speed MPH | gust MPH | rain 1hr in | rain 24hr in | rain mn in | humidity % | barometer mb |
| 20260505011055 | 64 | 181 | 3.0 | 10.0 | 0.02 | 0.02 | 0.02 | 65 | 1002.6 |
| 20260505010506 | 64 | 218 | 2.0 | 9.0 | 0.02 | 0.02 | 0.02 | 65 | 1002.6 |
| 20260505010058 | 64 | 227 | 2.0 | 13.0 | 0.02 | 0.02 | 0.02 | 64 | 1002.6 |
| 20260505005510 | 65 | 167 | 4.0 | 15.0 | 0.02 | 0.02 | 0.02 | 63 | 1002.7 |
| 20260505005050 | 65 | 117 | 2.0 | 15.0 | 0.02 | 0.02 | 0.02 | 62 | 1002.8 |
| 20260505004556 | 67 | 246 | 5.0 | 10.0 | 0.02 | 0.02 | 0.02 | 59 | 1003.1 |
| 20260505004100 | 69 | 240 | 3.0 | 9.0 | 0.01 | 0.01 | 0.01 | 55 | 1003.0 |
| 20260505003516 | 69 | 176 | 3.0 | 9.0 | 0.00 | 0.00 | 0.00 | 47 | 1002.6 |
| 20260505003008 | 69 | 187 | 2.0 | 10.0 | 0.00 | 0.00 | 0.00 | 46 | 1002.1 |
| 20260505002556 | 69 | 209 | 1.0 | 9.0 | 0.00 | 0.00 | 0.00 | 47 | 1002.1 |
| 20260505002025 | 69 | 209 | 2.0 | 9.0 | 0.00 | 0.00 | 0.00 | 46 | 1002.1 |
| 20260505001526 | 69 | 184 | 3.0 | 8.0 | 0.00 | 0.00 | 0.00 | 45 | 1002.0 |
| 20260505001028 | 70 | 178 | 1.0 | 8.0 | 0.00 | 0.00 | 0.00 | 44 | 1002.0 |
| 20260505000532 | 70 | 179 | 3.0 | 8.0 | 0.00 | 0.00 | 0.00 | 43 | 1002.0 |
| 20260505000039 | 70 | 214 | 2.0 | 11.0 | 0.00 | 0.00 | 0.00 | 43 | 1002.1 |
| 20260504235542 | 70 | 186 | 3.0 | 11.0 | 0.00 | 0.00 | 0.00 | 43 | 1002.2 |
| 20260504235047 | 70 | 224 | 1.0 | 5.0 | 0.00 | 0.00 | 0.00 | 43 | 1002.3 |
| 20260504234612 | 71 | 191 | 0.0 | 9.0 | 0.00 | 0.00 | 0.00 | 42 | 1002.2 |
| 20260504234041 | 71 | 175 | 2.0 | 9.0 | 0.00 | 0.00 | 0.00 | 40 | 1002.3 |
| 20260504233549 | 71 | 216 | 2.0 | 8.0 | 0.00 | 0.00 | 0.00 | 40 | 1002.4 |
| 20260504233031 | 71 | 267 | 3.0 | 8.0 | 0.00 | 0.00 | 0.00 | 40 | 1002.4 |
| 20260504232514 | 71 | 192 | 3.0 | 12.0 | 0.00 | 0.00 | 0.00 | 39 | 1002.4 |
| 20260504232017 | 72 | 223 | 5.0 | 12.0 | 0.00 | 0.00 | 0.00 | 38 | 1002.4 |
| 20260504231509 | 72 | 213 | 7.0 | 17.0 | 0.00 | 0.00 | 0.00 | 38 | 1002.5 |
| 20260504231025 | 73 | 240 | 6.0 | 17.0 | 0.00 | 0.00 | 0.00 | 37 | 1002.5 |
| 20260504230532 | 73 | 252 | 5.0 | 13.0 | 0.00 | 0.00 | 0.00 | 38 | 1002.5 |
| 20260504230037 | 73 | 222 | 4.0 | 14.0 | 0.00 | 0.00 | 0.00 | 37 | 1002.5 |
| 20260504225518 | 73 | 264 | 5.0 | 14.0 | 0.00 | 0.00 | 0.00 | 37 | 1002.4 |
| 20260504225031 | 73 | 288 | 4.0 | 15.0 | 0.00 | 0.00 | 0.00 | 38 | 1002.6 |
| 20260504224536 | 73 | 219 | 3.0 | 12.0 | 0.00 | 0.00 | 0.00 | 38 | 1002.6 |
| 20260504224009 | 73 | 202 | 2.0 | 15.0 | 0.00 | 0.00 | 0.00 | 37 | 1002.6 |
| 20260504223522 | 73 | 171 | 8.0 | 15.0 | 0.00 | 0.00 | 0.00 | 38 | 1002.7 |
| 20260504223030 | 74 | 242 | 6.0 | 14.0 | 0.00 | 0.00 | 0.00 | 37 | 1002.7 |
| 20260504222537 | 74 | 292 | 5.0 | 12.0 | 0.00 | 0.00 | 0.00 | 36 | 1002.8 |
| 20260504222041 | 74 | 206 | 2.0 | 18.0 | 0.00 | 0.00 | 0.00 | 37 | 1002.7 |
| 20260504221549 | 74 | 277 | 5.0 | 18.0 | 0.00 | 0.00 | 0.00 | 37 | 1002.8 |
| 20260504221101 | 74 | 237 | 8.0 | 17.0 | 0.00 | 0.00 | 0.00 | 33 | 1002.7 |
| 20260504220508 | 75 | 258 | 7.0 | 16.0 | 0.00 | 0.00 | 0.00 | 33 | 1002.7 |
| 20260504220049 | 75 | 239 | 8.0 | 12.0 | 0.00 | 0.00 | 0.00 | 33 | 1002.7 |
| 20260504215555 | 74 | 241 | 5.0 | 16.0 | 0.00 | 0.00 | 0.00 | 35 | 1002.7 |
| 20260504215051 | 74 | 225 | 3.0 | 16.0 | 0.00 | 0.00 | 0.00 | 35 | 1002.8 |
| 20260504214554 | 74 | 129 | 6.0 | 14.0 | 0.00 | 0.00 | 0.00 | 35 | 1002.7 |
| 20260504214034 | 74 | 186 | 3.0 | 9.0 | 0.00 | 0.00 | 0.00 | 34 | 1002.6 |
| 20260504213515 | 74 | 237 | 4.0 | 17.0 | 0.00 | 0.00 | 0.00 | 32 | 1002.7 |
| 20260504213040 | 74 | 224 | 7.0 | 17.0 | 0.00 | 0.00 | 0.00 | 31 | 1002.7 |
| 20260504212532 | 74 | 218 | 6.0 | 16.0 | 0.00 | 0.00 | 0.00 | 31 | 1002.6 |
| 20260504212028 | 74 | 259 | 7.0 | 16.0 | 0.00 | 0.00 | 0.00 | 30 | 1002.7 |
| 20260504211534 | 74 | 156 | 6.0 | 15.0 | 0.00 | 0.00 | 0.00 | 31 | 1002.7 |
| 20260504211025 | 75 | 241 | 4.0 | 11.0 | 0.00 | 0.00 | 0.00 | 33 | 1002.8 |
| 20260504210534 | 74 | 212 | 4.0 | 12.0 | 0.00 | 0.00 | 0.00 | 32 | 1002.8 |
| 20260504210040 | 74 | 184 | 3.0 | 12.0 | 0.00 | 0.00 | 0.00 | 31 | 1002.6 |
| 20260504205549 | 74 | 256 | 4.0 | 13.0 | 0.00 | 0.00 | 0.00 | 33 | 1002.6 |
| 20260504205034 | 74 | 270 | 5.0 | 14.0 | 0.00 | 0.00 | 0.00 | 33 | 1002.7 |
| 20260504204540 | 74 | 232 | 6.0 | 14.0 | 0.00 | 0.00 | 0.00 | 33 | 1002.8 |
| 20260504204051 | 74 | 191 | 5.0 | 17.0 | 0.00 | 0.00 | 0.00 | 31 | 1002.8 |
| 20260504203603 | 74 | 233 | 3.0 | 17.0 | 0.00 | 0.00 | 0.00 | 33 | 1002.9 |
| 20260504203503 | 74 | 192 | 5.0 | 17.0 | 0.00 | 0.00 | 0.00 | 35 | 1002.8 |
| 20260504203057 | 74 | 244 | 7.0 | 22.0 | 0.00 | 0.00 | 0.00 | 33 | 1002.9 |
| 20260504202550 | 74 | 248 | 8.0 | 22.0 | 0.00 | 0.00 | 0.00 | 33 | 1003.0 |
| 20260504202058 | 74 | 238 | 7.0 | 18.0 | 0.00 | 0.00 | 0.00 | 33 | 1002.9 |
| 20260504201507 | 74 | 243 | 6.0 | 16.0 | 0.00 | 0.00 | 0.00 | 34 | 1003.1 |
| 20260504201022 | 75 | 300 | 5.0 | 15.0 | 0.00 | 0.00 | 0.00 | 35 | 1003.0 |
| 20260504200521 | 75 | 207 | 3.0 | 10.0 | 0.00 | 0.00 | 0.00 | 35 | 1003.2 |
| 20260504200029 | 74 | 205 | 4.0 | 14.0 | 0.00 | 0.00 | 0.00 | 34 | 1003.1 |
| 20260504195538 | 74 | 242 | 6.0 | 14.0 | 0.00 | 0.00 | 0.00 | 35 | 1003.3 |
| 20260504195043 | 74 | 257 | 3.0 | 12.0 | 0.00 | 0.00 | 0.00 | 36 | 1003.3 |
| 20260504194558 | 74 | 229 | 3.0 | 11.0 | 0.00 | 0.00 | 0.00 | 35 | 1003.4 |
| 20260504194058 | 74 | 163 | 5.0 | 14.0 | 0.00 | 0.00 | 0.00 | 35 | 1003.5 |
| 20260504193537 | 74 | 225 | 5.0 | 14.0 | 0.00 | 0.00 | 0.00 | 34 | 1003.6 |
| 20260504193051 | 74 | 163 | 4.0 | 13.0 | 0.00 | 0.00 | 0.00 | 35 | 1003.7 |
| 20260504192548 | 74 | 199 | 4.0 | 15.0 | 0.00 | 0.00 | 0.00 | 35 | 1003.7 |
| 20260504192051 | 74 | 242 | 7.0 | 15.0 | 0.00 | 0.00 | 0.00 | 34 | 1003.8 |
| 20260504191557 | 74 | 294 | 5.0 | 14.0 | 0.00 | 0.00 | 0.00 | 37 | 1003.8 |
| 20260504191001 | 74 | 236 | 4.0 | 14.0 | 0.00 | 0.00 | 0.00 | 36 | 1003.9 |
| 20260504190514 | 73 | 256 | 7.0 | 17.0 | 0.00 | 0.00 | 0.00 | 34 | 1003.9 |
| 20260504190116 | 74 | 244 | 5.0 | 17.0 | 0.00 | 0.00 | 0.00 | 34 | 1003.9 |
| 20260504185544 | 73 | 216 | 5.0 | 15.0 | 0.00 | 0.00 | 0.00 | 36 | 1003.9 |
| 20260504185035 | 73 | 244 | 8.0 | 15.0 | 0.00 | 0.00 | 0.00 | 34 | 1004.0 |
| 20260504184541 | 74 | 214 | 6.0 | 13.0 | 0.00 | 0.00 | 0.00 | 36 | 1004.1 |
| 20260504184045 | 73 | 234 | 5.0 | 20.0 | 0.00 | 0.00 | 0.00 | 39 | 1004.2 |
| 20260504183552 | 73 | 213 | 8.0 | 20.0 | 0.00 | 0.00 | 0.00 | 38 | 1004.3 |
| 20260504183058 | 74 | 233 | 10.0 | 18.0 | 0.00 | 0.00 | 0.00 | 37 | 1004.4 |
| 20260504182509 | 74 | 249 | 6.0 | 17.0 | 0.00 | 0.00 | 0.00 | 40 | 1004.4 |
| 20260504182020 | 73 | 182 | 5.0 | 17.0 | 0.00 | 0.00 | 0.00 | 36 | 1004.4 |
| 20260504181522 | 73 | 227 | 3.0 | 14.0 | 0.00 | 0.00 | 0.00 | 41 | 1004.5 |
| 20260504181027 | 73 | 256 | 5.0 | 14.0 | 0.00 | 0.00 | 0.00 | 38 | 1004.5 |
| 20260504180534 | 73 | 238 | 4.0 | 12.0 | 0.00 | 0.00 | 0.00 | 39 | 1004.6 |
| 20260504180040 | 72 | 224 | 5.0 | 17.0 | 0.00 | 0.00 | 0.00 | 40 | 1004.6 |
| 20260504175551 | 72 | 262 | 8.0 | 18.0 | 0.00 | 0.00 | 0.00 | 40 | 1004.8 |
| 20260504175059 | 72 | 260 | 4.0 | 18.0 | 0.00 | 0.00 | 0.00 | 40 | 1004.8 |
| 20260504174505 | 72 | 195 | 4.0 | 14.0 | 0.00 | 0.00 | 0.00 | 41 | 1004.9 |
| 20260504174001 | 72 | 217 | 5.0 | 14.0 | 0.00 | 0.00 | 0.00 | 43 | 1004.9 |
| 20260504173552 | 71 | 188 | 3.0 | 13.0 | 0.00 | 0.00 | 0.00 | 44 | 1004.9 |
| 20260504173057 | 71 | 263 | 4.0 | 14.0 | 0.00 | 0.00 | 0.00 | 42 | 1005.1 |
| 20260504172600 | 70 | 217 | 4.0 | 19.0 | 0.00 | 0.00 | 0.00 | 44 | 1005.2 |
| 20260504172501 | 70 | 240 | 7.0 | 19.0 | 0.00 | 0.00 | 0.00 | 44 | 1005.2 |
| 20260504172029 | 70 | 258 | 9.0 | 19.0 | 0.00 | 0.00 | 0.00 | 41 | 1005.3 |
| 20260504171536 | 70 | 250 | 5.0 | 11.0 | 0.00 | 0.00 | 0.00 | 44 | 1005.4 |
| 20260504171048 | 70 | 250 | 6.0 | 14.0 | 0.00 | 0.00 | 0.00 | 43 | 1005.4 |
| 20260504170547 | 69 | 187 | 7.0 | 19.0 | 0.00 | 0.00 | 0.00 | 44 | 1005.6 |
| 20260504151025 | 65 | 221 | 3.0 | 9.0 | 0.00 | 0.00 | 0.00 | 50 | 1006.7 |
| 20260504150532 | 64 | 234 | 4.0 | 10.0 | 0.00 | 0.00 | 0.00 | 50 | 1006.8 |
| 20260504141005 | 62 | 235 | 4.0 | 10.0 | 0.00 | 0.00 | 0.00 | 52 | 1006.8 |
| 20260504140516 | 61 | 211 | 3.0 | 12.0 | 0.00 | 0.00 | 0.00 | 51 | 1006.9 |
| 20260504130550 | 58 | 215 | 3.0 | 16.0 | 0.00 | 0.00 | 0.00 | 54 | 1007.5 |
| 20260504110556 | 53 | 169 | 4.0 | 18.0 | 0.00 | 0.00 | 0.00 | 56 | 1007.2 |
| 20260504110118 | 53 | 149 | 7.0 | 14.0 | 0.00 | 0.00 | 0.00 | 55 | 1007.3 |
| 20260504100518 | 53 | 202 | 6.0 | 16.0 | 0.00 | 0.00 | 0.00 | 56 | 1007.2 |
| 20260504081512 | 52 | 159 | 6.0 | 19.0 | 0.00 | 0.00 | 0.00 | 55 | 1008.1 |
| 20260504081054 | 52 | 183 | 6.0 | 18.0 | 0.00 | 0.00 | 0.00 | 55 | 1008.2 |
| 20260504080504 | 52 | 176 | 5.0 | 15.0 | 0.00 | 0.00 | 0.00 | 55 | 1008.4 |
| 20260504050524 | 50 | 167 | 2.0 | 6.0 | 0.00 | 0.00 | 0.00 | 56 | 1010.5 |
| 20260504045545 | 51 | 176 | 1.0 | 5.0 | 0.00 | 0.00 | 0.00 | 56 | 1010.6 |
| 20260504045027 | 51 | 167 | 1.0 | 5.0 | 0.00 | 0.00 | 0.00 | 55 | 1010.7 |
| 20260504044541 | 51 | 213 | 1.0 | 6.0 | 0.00 | 0.00 | 0.00 | 55 | 1010.6 |
| 20260504044044 | 51 | 208 | 0.0 | 8.0 | 0.00 | 0.00 | 0.00 | 55 | 1010.6 |
| 20260504043551 | 51 | 173 | 2.0 | 8.0 | 0.00 | 0.00 | 0.00 | 54 | 1010.6 |
| 20260504043058 | 52 | 193 | 1.0 | 7.0 | 0.00 | 0.00 | 0.00 | 54 | 1010.6 |
| 20260504042505 | 52 | 217 | 2.0 | 9.0 | 0.00 | 0.00 | 0.00 | 54 | 1010.6 |
| 20260504042016 | 52 | 231 | 3.0 | 8.0 | 0.00 | 0.00 | 0.00 | 52 | 1010.7 |
| 20260504041510 | 52 | 234 | 2.0 | 10.0 | 0.00 | 0.00 | 0.00 | 52 | 1010.7 |
| 20260504041059 | 52 | 188 | 2.0 | 10.0 | 0.00 | 0.00 | 0.00 | 52 | 1010.6 |
| 20260504040507 | 53 | 206 | 5.0 | 11.0 | 0.00 | 0.00 | 0.00 | 52 | 1010.5 |
| 20260504040010 | 53 | 176 | 4.0 | 12.0 | 0.00 | 0.00 | 0.00 | 51 | 1010.5 |
| 20260504035548 | 53 | 184 | 5.0 | 12.0 | 0.00 | 0.00 | 0.00 | 51 | 1010.5 |
| 20260504035039 | 53 | 169 | 3.0 | 12.0 | 0.00 | 0.00 | 0.00 | 52 | 1010.5 |
| 20260504034553 | 53 | 188 | 3.0 | 12.0 | 0.00 | 0.00 | 0.00 | 52 | 1010.5 |
| 20260504034054 | 53 | 205 | 4.0 | 13.0 | 0.00 | 0.00 | 0.00 | 52 | 1010.6 |
| 20260504033508 | 53 | 235 | 6.0 | 13.0 | 0.00 | 0.00 | 0.00 | 51 | 1010.6 |
| 20260504033032 | 53 | 168 | 3.0 | 11.0 | 0.00 | 0.00 | 0.00 | 52 | 1010.6 |
| 20260504032508 | 53 | 175 | 5.0 | 11.0 | 0.00 | 0.00 | 0.00 | 52 | 1010.7 |
| 20260504032008 | 53 | 200 | 2.0 | 8.0 | 0.00 | 0.00 | 0.00 | 52 | 1010.8 |
| 20260504031556 | 52 | 182 | 3.0 | 7.0 | 0.00 | 0.00 | 0.00 | 52 | 1010.8 |
| 20260504031015 | 52 | 197 | 2.0 | 9.0 | 0.00 | 0.00 | 0.00 | 53 | 1010.8 |
| 20260504030520 | 53 | 171 | 2.0 | 9.0 | 0.00 | 0.00 | 0.00 | 53 | 1010.8 |
| 20260504025508 | 52 | 198 | 1.0 | 8.0 | 0.00 | 0.00 | 0.00 | 53 | 1010.9 |
| 20260504025027 | 52 | 219 | 1.0 | 8.0 | 0.00 | 0.00 | 0.00 | 53 | 1011.0 |
| 20260504024533 | 52 | 229 | 1.0 | 6.0 | 0.00 | 0.00 | 0.00 | 53 | 1010.9 |
| 20260504024040 | 52 | 168 | 1.0 | 5.0 | 0.00 | 0.00 | 0.00 | 54 | 1010.9 |
| 20260504023548 | 52 | 184 | 2.0 | 5.0 | 0.00 | 0.00 | 0.00 | 54 | 1010.9 |
| 20260504023058 | 52 | 223 | 0.0 | 5.0 | 0.00 | 0.00 | 0.00 | 54 | 1011.0 |
| 20260504022508 | 52 | 254 | 0.0 | 3.0 | 0.00 | 0.00 | 0.00 | 55 | 1011.0 |
| 20260504022016 | 52 | 195 | 0.0 | 3.0 | 0.00 | 0.00 | 0.00 | 54 | 1011.0 |
| 20260504021525 | 52 | 195 | 0.0 | 4.0 | 0.00 | 0.00 | 0.00 | 55 | 1011.1 |
| 20260504021027 | 52 | 182 | 0.0 | 5.0 | 0.00 | 0.00 | 0.00 | 55 | 1011.1 |
| 20260504020538 | 52 | 207 | 0.0 | 5.0 | 0.00 | 0.00 | 0.00 | 54 | 1011.1 |
| 20260504020034 | 53 | 225 | 0.0 | 1.0 | 0.00 | 0.00 | 0.00 | 55 | 1011.1 |
| 20260504015538 | 53 | 225 | 0.0 | 3.0 | 0.00 | 0.00 | 0.00 | 54 | 1011.1 |
| 20260504015051 | 53 | 225 | 0.0 | 3.0 | 0.00 | 0.00 | 0.00 | 54 | 1011.1 |
| 20260504014536 | 53 | 224 | 0.0 | 3.0 | 0.00 | 0.00 | 0.00 | 53 | 1011.1 |
| 20260504014046 | 53 | 221 | 0.0 | 5.0 | 0.00 | 0.00 | 0.00 | 53 | 1011.0 |
| 20260504013556 | 54 | 223 | 2.0 | 6.0 | 0.00 | 0.00 | 0.00 | 52 | 1011.0 |
| 20260504013002 | 54 | 202 | 2.0 | 6.0 | 0.00 | 0.00 | 0.00 | 51 | 1010.8 |
| 20260504012521 | 54 | 244 | 2.0 | 8.0 | 0.00 | 0.00 | 0.00 | 52 | 1010.8 |
| 20260504012027 | 54 | 190 | 2.0 | 8.0 | 0.00 | 0.00 | 0.00 | 51 | 1010.8 |
| 20260504011526 | 54 | 215 | 4.0 | 9.0 | 0.00 | 0.00 | 0.00 | 51 | 1010.8 |